Regional Weather Roundup
Issued by NWS

Home | Current Version | Previous Version | Text Only | Print | Product List | Glossary On
Versions: 1 2 3 4 5 6 7 8 9 10 11 12 13 14 15 16 17 18 19 20 21 22 23 24 25 26 27 28 29 30 31 32 33 34 35 36 37 38 39 40 41 42 43 44 45 46 47 48 49 50
698
ASUS42 KTBW 271717
RWRFL
FLORIDA REGIONAL WEATHER ROUNDUP
NATIONAL WEATHER SERVICE TAMPA BAY RUSKIN FL
100 PM EDT MON MAR 27 2017

NOTE: "FAIR" INDICATES FEW OR NO CLOUDS BELOW 12,000 FEET WITH NO
SIGNIFICANT WEATHER AND/OR OBSTRUCTIONS TO VISIBILITY.

FLZ001>010-012>015-112-114-115-271800-
PANHANDLE FLORIDA

CITY           SKY/WX    TMP DP  RH WIND       PRES   REMARKS
PENSACOLA      PTSUNNY   78  67  68 SE13      30.09S
PENSACOLA NAS  PTSUNNY   76  67  73 S12       30.08F
MILTON NAS     CLOUDY    77  65  66 S10       30.08
CRESTVIEW      MOSUNNY   78  60  53 S9        30.09F
PANAMA CITY    FAIR      77  59  53 SE14G21   30.10F
TYNDALL AFB    SUNNY     77  62  58 S15       30.10F
APALACHICOLA   SUNNY     76  64  66 SE9       30.12F

STATION/POSITION SKY/WX   TEMP    WIND        PRES    WAVE   SWELL
                          AIR SEA DIR/SP/G            HT/PER HT/PER
                          (F)     (DEG/KT/KT) (MB)    (FT/S) (FT/S)
30.1N   87.6W              71 70  140/  8/  8 1018.7    3/ 5   3/ 5
29.2N   88.2W              73 73  140/ 16/ 17 1018.3F
28.8N   86.0W              72 71              1019.7    2/ 6   2/ 6
PANAMA CITY BEAC           69 72  140/ 12/ 13 1019.6F
TOWER C                    68     160/  6/  6 1021.0S
28.5N   84.5W              71 71  140/  8/ 10 1020.2    1/ 7   2/ 7

$$
FLZ011-016>038-118-127-128-134-139-239-271800-
NORTH FLORIDA

CITY           SKY/WX    TMP DP  RH WIND       PRES   REMARKS
MARIANNA       SUNNY     79  57  46 SE8       30.08F
TALLAHASSEE    PTSUNNY   80  59  48 VRB6      30.11F
PERRY          MOSUNNY   79  62  55 SW13      30.14F
CROSS CITY     PTSUNNY   79  61  53 W9G21     30.12F
LAKE CITY      FAIR      81  59  47 SW7       30.12F
GAINESVILLE    SUNNY     80  57  45 MISG      30.12F
WILLISTON      SUNNY     82  59  44 CALM      30.13F
PALATKA        FAIR      81  55  41 SE6       30.14F
MAYPORT NAS    MOSUNNY   77  58  51 SE13      30.14F
JACKSONVILLE   MOSUNNY   78  58  49 VRB5      30.12F
JAX NAS        PTSUNNY   78  54  43 VRB5      30.14F
FERNANDINA BEA FAIR      79  61  53 SE10      30.13F
ST AUGUSTINE   SUNNY     77  58  51 E12       30.15F

STATION/POSITION SKY/WX   TEMP    WIND        PRES    WAVE   SWELL
                          AIR SEA DIR/SP/G            HT/PER HT/PER
                          (F)     (DEG/KT/KT) (MB)    (FT/S) (FT/S)
SHELL POINT      NOT AVBL
KEATON BEACH               70     180/  9/ 10 1020.7R
CEDAR KEY                  70     160/  8/ 10 1021.3R
FERNANDINA                 75 67  140/  7/ 11 1021.2F
30.7N   81.3W                 67                N/A     3/11   2/11
MAYPORT                    74 68  120/  8/ 14 1020.9F
31.4N   80.9W              65 64  150/  2/  4 1021.3    3/10   3/10
ST AUGUSTINE               70 69   80/  5/  6 1022.0F

$$
FLZ040-043>046-052-053-057-058-063-144-271800-
INTERIOR CENTRAL FLORIDA

CITY           SKY/WX    TMP DP  RH WIND       PRES   REMARKS
OCALA          MOSUNNY   81  57  44 E7        30.13F
THE VILLAGES     N/A     79  59  50 SE8       30.04F
LEESBURG       PTSUNNY   80  56  43 SE10G20   30.14F
SANFORD        PTSUNNY   81  54  39 E8        30.13F
ORLANDO EXEC   MOSUNNY   80  56  43 E9        30.12F
ORLANDO INTL   PTSUNNY   82  54  37 E9        30.12F
KISSIMMEE      PTSUNNY   79  58  48 VRB7      30.13F
WINTER HAVEN   MOSUNNY   80  53  39 NE7       30.14F
BARTOW         MOSUNNY   77  54  44 E5        30.13F
OKEECHOBEE     PTSUNNY  N/A N/A N/A N5        30.11F

$$
FLZ041-047-054-059-064-141-147-271800-
EAST CENTRAL FLORIDA

CITY           SKY/WX    TMP DP  RH WIND       PRES   REMARKS
ORMOND BEACH   MOSUNNY   77  59  53 E7        30.14
DAYTONA BEACH  MOSUNNY   77  57  50 E8        30.14F
DELAND         MOSUNNY   77  57  50 N3        30.13S
NEW SMYRNA BEA SUNNY     77  59  53 NE8       30.15F
JFK SPACE CTR  MOSUNNY   77  62  59 E12       30.12F
TITUSVILLE     MOSUNNY   79  55  44 NE12      30.13F
MELBOURNE      SUNNY     80  60  50 NE12      30.12F
VERO BEACH     SUNNY     79  60  52 NE10      30.11F
FT PIERCE      MOSUNNY   79  62  56 VRB6      30.11F

STATION/POSITION SKY/WX   TEMP    WIND        PRES    WAVE   SWELL
                          AIR SEA DIR/SP/G            HT/PER HT/PER
                          (F)     (DEG/KT/KT) (MB)    (FT/S) (FT/S)
TRIDENT PIER               78 72   60/ 10/ 13 1021.2F
28.4N   80.5W                 72                N/A     2/11   2/11
27.5N   80.2W                 75                N/A     3/10   2/11

$$
FLZ050-056-061-142-242-148-248-149-249-151-251-155-255-
160-260-271800-
WEST CENTRAL FLORIDA

CITY           SKY/WX    TMP DP  RH WIND       PRES   REMARKS
CRYSTAL RIVER  PTSUNNY   79  59  50 W8        30.13F
INVERNESS      PTSUNNY   81  61  50 E5        30.14F HAZE
BROOKSVILLE    PTSUNNY   82  56  40 VRB3      30.13F
CLEARWATER AIR FAIR      79  55  44 SE3       30.13S
ST PETE CLEARW MOSUNNY   78  58  49 NE7       30.12F
TAMPA INTL     PTSUNNY   80  62  54 SW12      30.12F
TAMPA EXEC     MOSUNNY   82  55  39 E6        30.14F
PLANT CITY     SUNNY     82  57  42 E7        30.14F
MACDILL AFB    MOSUNNY   83  59  44 CALM      30.12F
PETER O KNIGHT SUNNY     82  61  47 SW7       30.12F
ST PETERSBURG  SUNNY     77  61  57 NE3       30.11F
SARASOTA       MOSUNNY   80  58  46 SW9       30.10F
VENICE         FAIR      81  61  50 VRB5      30.11F

STATION/POSITION SKY/WX   TEMP    WIND        PRES    WAVE   SWELL
                          AIR SEA DIR/SP/G            HT/PER HT/PER
                          (F)     (DEG/KT/KT) (MB)    (FT/S) (FT/S)
27.3N   84.2W                 72                N/A     2/ 5
CLEARWATER BEACH           72 70  230/  7/  8 1020.6F
MIDDLE TAMPA BAY           71     350/  6/  6 1020.4F
VENICE                     76 71  140/  4/  5 1019.6F

$$
FLZ066-069-070-075>078-162-262-165-265-271800-
SOUTHWEST FLORIDA AND KEYS

CITY           SKY/WX    TMP DP  RH WIND       PRES   REMARKS
PUNTA GORDA    MOSUNNY   83  56  39 E9        30.11F
FT MYERS       MOSUNNY   84  56  38 NE8       30.09F
SOUTHWEST INTL MOSUNNY   80  55  42 N9        30.09F
NAPLES         PTSUNNY   83  58  42 E8        30.08F
IMMOKALEE      PTSUNNY   81  57  44 NE9       30.08F
MARATHON       SUNNY     80  66  62 NE12      30.07F
KEY WEST NAS   MOSUNNY   79  66  64 N14       30.09R
KEY WEST INTL  MOSUNNY   79  66  64 NE14      30.09S

STATION/POSITION SKY/WX   TEMP    WIND        PRES    WAVE   SWELL
                          AIR SEA DIR/SP/G            HT/PER HT/PER
                          (F)     (DEG/KT/KT) (MB)    (FT/S) (FT/S)
NAPLES                        72              1018.8F
26.0N   85.6W              76 78  110/ 14/ 16 1019.2    3/ 6   2/11
DRY TORTUGAS               73      60/ 14/ 15 1019.2R
SAND KEY                   75      60/ 11/ 13 1019.2
LONG KEY                   74 75   50/ 10/ 12 1018.9F
MOLASSES REEF              75 78   80/ 10/ 10 1019.1R

$$
FLZ067-068-071>074-168-172>174-271800-
SOUTHEAST FLORIDA

CITY           SKY/WX    TMP DP  RH WIND       PRES   REMARKS
W PALM BEACH   MOSUNNY   78  58  49 E10G17    30.11F
BOCA RATON     SUNNY     79  59  50 E12       30.10F
FT LAUDER-EXEC MOSUNNY   83  57  41 E14       30.09F
FT LAUDERDALE  MOSUNNY   80  62  54 E12       30.08F
POMPANO BEACH  MOSUNNY   80  59  48 NE13      30.10S
PEMBROKE PINES MOSUNNY   81  62  52 E14       30.10F
OPA LOCKA      PTSUNNY   79  60  52 E5G16     30.08F
MIAMI          PTSUNNY   81  62  52 E13       30.08F
WEST KENDALL   PTSUNNY   82  61  48 SE13      30.08F
HOMESTEAD      NOT AVBL

STATION/POSITION SKY/WX   TEMP    WIND        PRES    WAVE   SWELL
                          AIR SEA DIR/SP/G            HT/PER HT/PER
                          (F)     (DEG/KT/KT) (MB)    (FT/S) (FT/S)
PORT EVERGLADES            76      40/  9/ 12 1019.3S
VIRGINIA KEY               75      80/  7/  9 1019.3F
LAKE WORTH                         70/ 10/ 11   N/A
FOWEY ROCKS                74 76   70/  8/ 10 1019.8R
SETTLEMENT POINT           72      40/  9/ 10 1019.8S

$$





USA.gov is the U.S. government's official web portal to all federal, state and local government web resources and services.